Station 44007 (LLNR 75) - PORTLAND - 12 NM Southeast of Portland,ME Image indicating link to RSS feed of recent meteorological observations for station 44007

East Hue and Cry Rock Lighted Buoy 1


Conditions at 44007 as of
(6:30 pm EDT)
2230 GMT on 05/18/2024:
     

Click on the graph icon in the table below to see a time series plot of the last five days of that observation.

5-day plot - Wind Direction Wind Direction (WDIR): NE ( 50 deg true )
5-day plot - Wind Speed Wind Speed (WSPD): 9.7 kts
5-day plot - Wind Gust Wind Gust (GST): 11.7 kts
5-day plot - Atmospheric Pressure Atmospheric Pressure (PRES):30.05 in
5-day plot - Air Temperature Air Temperature (ATMP): 50.5 °F
5-day plot - Water Temperature Water Temperature (WTMP): 49.6 °F
5-day plot - Dew Point Dew Point (DEWP): 49.8 °F
5-day plot - Wind Chill Wind Chill (CHILL): 46.4 °F
5-day plot - Wind Speed at 10 Meters Wind Speed at 10 meters (WSPD10M): 9.7 kts
5-day plot - Wind Speed at 20 Meters Wind Speed at 20 meters (WSPD20M): 9.7 kts
5-day plot -  Wind Speed, Wind Gust and Atmospheric Pressure Combined plot of Wind Speed, Gust, and Air Pressure
Supplemental Measurements
Highest 1-minute Wind Speed
Time (EDT)5-day plot - 1-Minute Wind Speed WSPD 5-day plot - 1-Minute Wind Direction WDIR
6:23 pm 9.7 kts-
Previous observations
TIME
(EDT)
5-day plot - Wind Direction
WDIR
 
5-day plot - Wind Speed
WSPD
kts
5-day plot - Wind Gust
GST
kts
5-day plot - Wave Height
WVHT
ft
5-day plot - Dominant Wave Period
DPD
sec
5-day plot - Average Wave Period
APD
sec
5-day plot - Mean Wave Direction
MWD
 
5-day plot - Atmospheric Pressure
PRES
in
5-day plot - Pressure Tendency
PTDY
in
5-day plot - Air Temperature
ATMP
°F
5-day plot - Water Temperature
WTMP
°F
5-day plot - Dew Point
DEWP
°F
5-day plot - Salinity
SAL
psu
5-day plot - Visibility
VIS
nmi
5-day plot - Tide (above MLLW)
TIDE
ft
2024-05-18 06:20 pm NE 9.7 11.7 4.6 85.8 SE30.05- 50.4 49.6 49.6---
2024-05-18 06:10 pm NE 9.7 11.7----30.05- 50.4 49.6 49.5---
2024-05-18 06:00 pm NE 9.7 11.7----30.05-0.02 50.2 49.6 49.3---
2024-05-18 05:50 pm NE 9.7 11.7 4.6 85.7 SE30.05- 50.0 49.6 49.1---
2024-05-18 05:40 pm NE 9.7 13.6----30.05- 50.0 49.6 49.1---
2024-05-18 05:30 pm NE 11.7 13.6----30.05- 50.0 49.6 48.9---
2024-05-18 05:20 pm NE 9.7 11.7 4.9 85.9ESE30.06- 50.0 49.6 49.1---
2024-05-18 05:10 pm NE 9.7 13.6 4.9-5.9ESE30.06- 50.0 49.8 48.9---
2024-05-18 05:00 pm NE 9.7 11.7----30.06-0.02 50.2 50.0 48.7---
2024-05-18 04:50 pm NE 9.7 11.7 5.2 86.0 SE30.06- 50.2 50.0 48.6---
2024-05-18 04:40 pm NE 9.7 11.7----30.06- 50.2 50.0 48.4---
2024-05-18 04:30 pm NE 9.7 11.7----30.06- 50.4- 48.4---
2024-05-18 04:20 pmENE 11.7 13.6 4.6 85.7 SE30.06- 50.7 50.2 48.7---
2024-05-18 04:10 pmENE 9.7 13.6 4.6-5.7 SE30.06- 50.9 50.4 48.7---
2024-05-18 04:00 pmENE 11.7 13.6----30.06-0.01 50.9 50.4 48.9---
2024-05-18 03:50 pm NE 9.7 13.6 4.6 85.7 SE30.06- 50.9 50.2 48.9---
2024-05-18 03:40 pm NE 9.7 11.7 4.6-5.7 SE30.06- 50.9 50.2 49.1---
2024-05-18 03:30 pm NE 9.7 11.7----30.06- 50.7 50.2 49.1---
2024-05-18 03:20 pm NE 9.7 11.7 4.6 85.6ESE30.07- 50.9 50.2 49.1---
2024-05-18 03:10 pm NE 9.7 11.7 4.6-5.6ESE30.07- 50.9 50.0 48.9---
2024-05-18 03:00 pmENE 11.7 13.6----30.07-0.01 50.7 50.0 48.7---
2024-05-18 02:50 pmENE 11.7 13.6 4.9 85.9 SE30.06- 50.7 50.0 48.7---
2024-05-18 02:40 pm NE 9.7 11.7----30.07- 50.7 49.8 48.7---
2024-05-18 02:30 pmENE 9.7 13.6----30.07- 50.7 50.0 48.7---
2024-05-18 02:20 pmENE 9.7 11.7 4.6 85.6 SE30.07- 50.7 50.0 48.7---
2024-05-18 02:10 pm NE 9.7 11.7----30.08- 50.7 49.8 48.7---
2024-05-18 02:00 pm NE 9.7 11.7----30.07+0.00 50.7 49.6 48.6---
2024-05-18 01:50 pm NE 9.7 11.7 4.6 95.6ESE30.07- 50.9 49.6 48.7---
2024-05-18 01:40 pm NE 11.7 13.6----30.08- 50.9 49.5 48.6---
2024-05-18 01:30 pmENE 11.7 13.6----30.07- 50.9 49.3 48.4---
2024-05-18 01:20 pmENE 11.7 13.6 4.3 85.5 SE30.07- 51.1 49.3 48.6---
2024-05-18 01:10 pmENE 11.7 15.5 4.3-5.5 SE30.07- 51.1 49.3 48.4---
2024-05-18 01:00 pmENE 13.6 15.5----30.07+0.00 51.1 49.3 48.4---
2024-05-18 12:50 pmENE 13.6 15.5 4.3 85.7 SE30.07- 50.9 49.3 48.4---
2024-05-18 12:40 pmENE 11.7 15.5----30.07- 50.9 49.3 48.4---
2024-05-18 12:30 pmENE 11.7 15.5----30.08- 51.1 49.1 48.4---
2024-05-18 12:20 pm NE 11.7 13.6 4.3 85.9 SE30.08- 51.4 49.1 48.6---
2024-05-18 12:10 pm NE 11.7 13.6 4.3-5.9 SE30.08- 51.8 49.3 48.7---
2024-05-18 12:00 pm NE 9.7 13.6----30.08+0.01 52.0 49.3 49.1---
2024-05-18 11:50 am NE 9.7 11.7 4.3 85.8 SE30.08- 51.6 49.1 49.1---
2024-05-18 11:40 am NE 9.7 11.7----30.08- 51.4 49.1 48.9---
2024-05-18 11:30 am NE 9.7 11.7----30.07- 51.4 49.1 48.9---
2024-05-18 11:20 am NE 9.7 11.7 3.9 95.8 SE30.07- 51.4 49.1 49.1---
2024-05-18 11:10 amNNE 9.7 9.7 3.9-5.8 SE30.07- 51.4 49.1 48.9---
2024-05-18 11:00 am NE 7.8 9.7----30.07+0.00 51.4 49.1 48.9---
2024-05-18 10:50 am NE 9.7 11.7 3.9 85.8 SE30.07- 51.4 49.1 48.9---
2024-05-18 10:40 am NE 7.8 11.7----30.07- 51.3 49.1 48.7---
2024-05-18 10:30 am NE 7.8 9.7----30.07- 51.3 49.1 48.7---
2024-05-18 10:20 amNNE 7.8 9.7 3.9 95.6 SE30.07- 51.4 49.3 48.6---
2024-05-18 10:10 amNNE 7.8 9.7 3.9-5.6 SE30.07- 51.1 49.3 48.4---
2024-05-18 10:00 amNNE 7.8 9.7----30.07+0.02 51.1 49.1 48.4---
2024-05-18 09:50 amNNE 5.8 7.8 3.9 85.8 SE30.07- 51.3 49.1 48.2---
2024-05-18 09:40 amNNE 5.8 7.8----30.07- 51.1 49.1 48.4---
2024-05-18 09:30 amNNE 5.8 7.8----30.07- 50.9 49.3 48.2---
2024-05-18 09:20 amNNE 5.8 7.8 4.3 85.9 SE30.07- 51.1 49.3 48.4---
2024-05-18 09:10 amNNE 5.8 7.8 4.3-5.9 SE30.07- 51.1 49.3 48.2---
2024-05-18 09:00 am NE 5.8 7.8----30.07+0.04 50.9 49.3 48.2---
2024-05-18 08:50 amENE 5.8 7.8 3.9 85.9 SE30.07- 50.9 49.5 48.0---
2024-05-18 08:40 amENE 7.8 9.7----30.07- 50.7 49.6 48.2---
2024-05-18 08:30 amENE 5.8 9.7----30.07- 50.7 50.2 48.6---
2024-05-18 08:20 amENE 5.8 7.8 4.3 96.1 SE30.06- 50.7 50.4 48.6---
2024-05-18 08:10 amENE 5.8 7.8 4.3-6.1 SE30.06- 50.9 50.5 48.6---
2024-05-18 08:00 amENE 7.8 7.8----30.06+0.04 50.9 50.5 48.6---
2024-05-18 07:50 amENE 7.8 9.7 3.6 86.0 SE30.06- 50.9 50.7 48.6---
2024-05-18 07:40 amENE 7.8 9.7----30.05- 51.1 50.9 48.6---
2024-05-18 07:30 am E 7.8 9.7----30.05- 51.3 50.9 48.7---
2024-05-18 07:20 am E 7.8 9.7 4.3 86.3 SE30.05- 51.3 51.1 48.7---
2024-05-18 07:10 am E 7.8 9.7 4.3-6.3 SE30.05- 51.3 51.3 48.7---
2024-05-18 07:00 am E 7.8 9.7----30.05+0.03 51.4 51.1 48.9---
2024-05-18 06:50 amENE 7.8 9.7 3.9 86.1 SE30.04- 51.6 51.3 48.7---
2024-05-18 06:40 amENE 7.8 9.7----30.04- 51.8 51.4 48.7---
2024-05-18 06:30 am E 7.8 9.7----30.04- 52.0 51.4 48.7---
2024-05-18 06:20 am E 9.7 11.7 4.3 86.5 SE30.04- 52.2 51.6 48.7---
2024-05-18 06:10 am E 7.8 9.7 4.3-6.5 SE30.03- 52.3 52.0 49.1---
2024-05-18 06:00 am E 7.8 9.7----30.03+0.01 52.0 52.3 50.0---
2024-05-18 05:50 amENE 5.8 7.8 4.3 86.5 SE30.03- 52.2 52.5 50.7---
2024-05-18 05:40 am E 5.8 7.8----30.03- 52.7 52.9 51.3---
2024-05-18 05:30 amENE 5.8 7.8----30.03- 53.2 52.7 52.0---
2024-05-18 05:20 am NE 5.8 5.8 3.9 86.5 SE30.03- 53.8 52.9 52.7---
2024-05-18 05:10 amNNE 5.8 7.8 3.9-6.5 SE30.03- 54.0 52.9 52.9---
2024-05-18 05:00 amNNE 5.8 7.8----30.03+0.00 54.0 52.9 52.7---
2024-05-18 04:50 am N 5.8 7.8 3.9 86.5 SE30.03- 53.8 52.9 52.7---
2024-05-18 04:40 am N 5.8 5.8----30.03- 53.6 52.9 52.7---
2024-05-18 04:30 am N 5.8 7.8----30.02- 53.4 52.7 52.5---
2024-05-18 04:20 am N 5.8 7.8 4.3 86.7 SE30.02- 53.4 52.9 52.3---
2024-05-18 04:10 amNNE 5.8 5.8----30.02- 53.8 52.9 52.5---
2024-05-18 04:00 am N 3.9 5.8----30.02-0.01 54.0 52.9 52.5---
2024-05-18 03:50 am N 5.8 7.8 3.9 86.5 SE30.02- 54.0 52.9 52.3---
2024-05-18 03:40 am N 3.9 5.8----30.01- 54.1 52.9 52.3---
2024-05-18 03:30 amNNE 3.9 5.8----30.02- 54.5 52.9 51.8---
2024-05-18 03:20 amNNE 3.9 7.8 4.3 86.7SSE30.02- 54.9 53.1 51.4---
2024-05-18 03:10 am N 5.8 5.8 4.3-6.7SSE30.01- 54.7 52.9 51.8---
2024-05-18 03:00 amNNW 5.8 7.8----30.01-0.03 54.7 52.9 51.6---
2024-05-18 02:50 amNNW 3.9 7.8 4.3 86.7SSE30.02- 54.7 52.9 51.6---
2024-05-18 02:40 amNNW 5.8 7.8----30.02- 54.7 52.9 51.8---
2024-05-18 02:30 amNNW 5.8 5.8----30.02- 54.7 52.9 51.4---
2024-05-18 02:20 am N 3.9 7.8 4.3 86.8SSE30.02- 54.7 52.9 51.3---
2024-05-18 02:10 amNNW 3.9 5.8 4.3-6.8SSE30.02- 54.5 53.1 51.4---
2024-05-18 02:00 amNNW 3.9 7.8----30.02-0.02 54.3 52.9 51.8---
2024-05-18 01:50 amNNW 3.9 7.8 3.6 86.5 SE30.02- 54.1 52.9 52.0---
2024-05-18 01:40 amNNW 3.9 5.8----30.02- 54.0 52.9 51.8---
2024-05-18 01:30 amNNW 5.8 7.8----30.02- 53.8 52.9 51.6---
2024-05-18 01:20 am N 3.9 5.8 3.9 86.6SSE30.02- 53.8 52.7 51.6---
2024-05-18 01:10 am N 5.8 7.8 3.9-6.6SSE30.02- 54.0 52.3 51.6---
2024-05-18 01:00 amNNW 5.8 7.8----30.03-0.01 53.6 52.3 51.6---
2024-05-18 12:50 amNNW 5.8 7.8 3.3 86.3 SE30.04- 53.8 52.3 51.8---
2024-05-18 12:40 amNNW 5.8 7.8----30.04- 53.8 52.5 51.8---
2024-05-18 12:30 am N 5.8 7.8----30.04- 53.8 52.5 51.3---
2024-05-18 12:20 am N 5.8 7.8 3.3 86.3 SE30.04- 53.4 52.5 51.1---
2024-05-18 12:10 am N 5.8 7.8 3.3-6.3 SE30.04- 53.2 52.3 50.9---
2024-05-18 12:00 am N 3.9 5.8----30.05+0.01 53.1 52.2 50.9---
2024-05-17 11:50 pmNNE 3.9 5.8 3.3 96.3 SE30.04- 52.7 52.2 50.5---
2024-05-17 11:40 pmNNE 5.8 7.8----30.04- 52.7 52.0 50.5---
2024-05-17 11:30 pmNNE 5.8 7.8----30.04- 52.5 51.8 50.4---
2024-05-17 11:20 pmNNE 5.8 7.8 3.3 96.3 SE30.04- 52.2 51.8 50.2---
2024-05-17 11:10 pm NE 5.8 7.8 3.3-6.3 SE30.04- 52.2 51.6 50.2---
2024-05-17 11:00 pmNNE 5.8 5.8----30.04+0.01 52.0 51.3 50.2---
2024-05-17 10:50 pmNNE 5.8 7.8 3.3 86.4SSE30.04- 52.0 51.3 50.0---
2024-05-17 10:40 pmNNE 5.8 7.8----30.04- 52.0 51.1 50.0---
2024-05-17 10:30 pm NE 5.8 5.8----30.04- 51.8 51.1 50.0---
2024-05-17 10:20 pmNNE 5.8 5.8 3.3 86.1SSE30.04- 52.0 51.1 50.4---
2024-05-17 10:10 pmNNE 5.8 5.8----30.04- 52.0 50.9 50.5---
2024-05-17 10:00 pm N 5.8 5.8----30.05+0.02 51.8 50.9 50.5---
2024-05-17 09:50 pm N 5.8 5.8 3.3 96.2 SE30.05- 51.6 50.7 50.4---
2024-05-17 09:40 pm N 5.8 5.8----30.05- 51.4 50.7 50.4---
2024-05-17 09:30 pm N 3.9 5.8----30.04- 51.3 50.5 50.2---
2024-05-17 09:20 pmNNE 3.9 5.8 3.3 96.2 SE30.04- 51.1 50.5 49.8---
2024-05-17 09:10 pmNNE 3.9 5.8 3.3-6.2 SE30.03- 51.1 50.2 49.8---
2024-05-17 09:00 pmNNE 3.9 3.9----30.03+0.00 51.1 50.2 50.0---
2024-05-17 08:50 pmNNE 3.9 5.8 3.3 96.0SSE30.03- 50.9 50.2 49.8---
2024-05-17 08:40 pmNNE 3.9 5.8----30.03- 50.9 50.2 49.8---
2024-05-17 08:30 pm N 1.9 3.9----30.03- 50.9 50.0 50.0---
2024-05-17 08:20 pmNNE 1.9 3.9 3.6 96.2 SE30.03- 50.7 50.0 49.8---
2024-05-17 08:10 pm NE 1.9 3.9 3.6-6.2 SE30.03- 50.7 50.0 49.8---
2024-05-17 08:00 pm NE 3.9 3.9----30.03-0.01 50.9 50.0 49.8---
2024-05-17 07:50 pmNNE 3.9 5.8 3.3 96.2SSE30.03- 50.9 49.8 49.8---
2024-05-17 07:40 pm N 3.9 5.8----30.03- 50.7 49.6 49.6---
2024-05-17 07:30 pm N 3.9 5.8----30.03- 50.5 49.6 49.5---
2024-05-17 07:20 pm N 3.9 5.8 3.6 86.1SSE30.03- 50.4 50.0 49.3---
2024-05-17 07:10 pmNNE 3.9 5.8 3.6-6.1SSE30.03- 50.4 50.0 49.3---
2024-05-17 07:00 pm NE 3.9 5.8----30.03+0.00 50.5 50.2 49.5---
2024-05-17 06:50 pmNNE 5.8 5.8 3.9 86.2 SE30.02- 50.4 50.4 49.1---
2024-05-17 06:40 pmNNE 3.9 5.8----30.02- 50.4 50.5 49.1---
2024-05-17 06:30 pmNNE 3.9 5.8----30.02- 50.4 50.5 49.1---
2024-05-17 06:20 pmNNE 3.9 5.8 3.9 86.3SSE30.03- 50.4 50.5 49.1---
2024-05-17 06:10 pmNNE 3.9 5.8 3.9-6.3SSE30.03- 50.4 50.9 49.1---
2024-05-17 06:00 pm NE 3.9 5.8----30.03+0.00 50.4 50.9 48.9---
2024-05-17 05:50 pmENE 3.9 5.8 3.6 85.8SSE30.03- 50.4 50.7 48.9---

Detailed Wave Summary
for 44007 as of (6:10 pm EDT)
2210 GMT on 05/18/2024:

These wave data are displayed in rounded times.

     

Click on the graph icon in the table below to see a time series plot of the last five days of that observation.

5-day plot - Significant Wave Height Significant Wave Height (WVHT): 4.6 ft
5-day plot - Swell Height Swell Height (SwH): 4.3 ft
5-day plot - Swell Period Swell Period (SwP): 7.7 sec
5-day plot - Swell Direction Swell Direction (SwD): SE
5-day plot - Wind Wave Height Wind Wave Height (WWH): 2.0 ft
5-day plot - Wind Wave Period Wind Wave Period (WWP): 4.8 sec
5-day plot - Wind Wave Direction Wind Wave Direction (WWD):ESE
5-day plot - Wave Steepness Wave Steepness (STEEPNESS): AVERAGE
5-day plot - Average Wave Period Average Wave Period (APD): 5.8 sec
Previous observations
TIME
(EDT)
5-day plot - Wave Height
WVHT
ft
5-day plot - Swell Height
SwH
ft
5-day plot - Swell Period
SwP
sec
5-day plot - Swell Direction
SwD
 
5-day plot - Wind Wave Height
WWH
ft
5-day plot - Wind Wave Period
WWP
sec
5-day plot - Wind Wave Direction
WWD
 
5-day plot - Wave Steepness
STEEPNESS
 
5-day plot - Average Wave Period
APD
sec
2024-05-18 05:40 pm 4.6 4.3 7.7 SE 2.0 4.5 ESE AVERAGE 5.7
2024-05-18 05:10 pm 4.9 4.6 8.3ESE 2.0 4.3 ESE AVERAGE 5.9
2024-05-18 04:40 pm 5.2 4.9 8.3 SE 2.0 4.3 ESE AVERAGE 6.0
2024-05-18 04:10 pm 4.6 4.3 8.3 SE 2.3 5.0 ESE AVERAGE 5.7
2024-05-18 03:40 pm 4.6 4.3 8.3 SE 2.0 4.3 ESE AVERAGE 5.7
2024-05-18 03:10 pm 4.6 4.3 8.3ESE 2.0 4.5 ESE AVERAGE 5.6
2024-05-18 02:40 pm 4.9 4.6 8.3 SE 2.0 4.8 ESE AVERAGE 5.9
2024-05-18 02:10 pm 4.6 4.3 7.7 SE 2.0 3.0 E AVERAGE 5.6
2024-05-18 01:40 pm 4.6 4.3 9.1ESE 2.3 5.0 ESE SWELL 5.6
2024-05-18 01:10 pm 4.3 3.6 8.3 SE 2.6 5.3 ESE AVERAGE 5.5
2024-05-18 12:40 pm 4.3 3.6 8.3 SE 2.3 5.6 ESE AVERAGE 5.7
2024-05-18 12:10 pm 4.3 3.6 8.3 SE 2.3 3.6 ESE AVERAGE 5.9
2024-05-18 11:40 am 4.3 3.9 8.3 SE 1.6 4.5 ESE AVERAGE 5.8
2024-05-18 11:10 am 3.9 3.9 9.1 SE 1.3 4.3 ESE SWELL 5.8
2024-05-18 10:40 am 3.9 3.9 8.3 SE 1.3 3.8 ESE AVERAGE 5.8
2024-05-18 10:10 am 3.9 3.6 9.1 SE 1.3 4.0 ESE SWELL 5.6
2024-05-18 09:40 am 3.9 3.9 8.3 SE 1.3 3.8 SE AVERAGE 5.8
2024-05-18 09:10 am 4.3 3.9 7.7 SE 1.3 3.4 ESE AVERAGE 5.9
2024-05-18 08:40 am 3.9 3.9 8.3 SE 1.3 3.8 ESE AVERAGE 5.9
2024-05-18 08:10 am 4.3 3.9 9.1 SE 1.0 4.0 ESE SWELL 6.1
2024-05-18 07:40 am 3.6 3.6 7.7 SE 1.0 3.8 SE AVERAGE 6.0
2024-05-18 07:10 am 4.3 3.9 8.3 SE 1.0 3.8 ESE AVERAGE 6.3
2024-05-18 06:40 am 3.9 3.9 7.7 SE 1.0 3.4 ESE AVERAGE 6.1
2024-05-18 06:10 am 4.3 4.3 7.7 SE 1.0 4.0 ESE AVERAGE 6.5
2024-05-18 05:40 am 4.3 3.9 8.3 SE 1.0 3.7 ESE AVERAGE 6.5
2024-05-18 05:10 am 3.9 3.9 7.7 SE 1.0 3.6 E AVERAGE 6.5
2024-05-18 04:40 am 3.9 3.9 8.3 SE 1.0 3.7 ESE AVERAGE 6.5
2024-05-18 04:10 am 4.3 4.3 8.3 SE 1.0 3.7 ESE AVERAGE 6.7
2024-05-18 03:40 am 3.9 3.9 7.7 SE 1.0 3.6 ESE AVERAGE 6.5
2024-05-18 03:10 am 4.3 4.3 7.7SSE 0.7 3.7 SE AVERAGE 6.7
2024-05-18 02:40 am 4.3 4.3 7.7SSE 0.7 3.8 ESE AVERAGE 6.7
2024-05-18 02:10 am 4.3 4.3 8.3SSE 0.7 4.0 SE AVERAGE 6.8
2024-05-18 01:40 am 3.6 3.6 8.3 SE 0.7 3.3 ESE AVERAGE 6.5
2024-05-18 01:10 am 3.9 3.6 8.3SSE 0.7 3.7 ESE AVERAGE 6.6
2024-05-18 12:40 am 3.3 3.3 8.3 SE 0.7 4.0 ESE SWELL 6.3
2024-05-18 12:10 am 3.3 3.3 8.3 SE 0.7 3.7 ESE SWELL 6.3
2024-05-17 11:40 pm 3.3 3.3 9.1 SE 1.0 3.4 ESE SWELL 6.3
2024-05-17 11:10 pm 3.3 3.3 9.1 SE 1.0 3.6 ESE SWELL 6.3
2024-05-17 10:40 pm 3.3 3.3 8.3SSE 0.7 3.8 ESE SWELL 6.4
2024-05-17 10:10 pm 3.3 3.3 8.3SSE 1.0 3.8 ESE SWELL 6.1
2024-05-17 09:40 pm 3.3 3.0 9.1 SE 1.0 4.0 ESE SWELL 6.2
2024-05-17 09:10 pm 3.3 3.3 9.1 SE 1.0 3.6 E SWELL 6.2
2024-05-17 08:40 pm 3.3 3.0 9.1SSE 1.0 3.4 ESE SWELL 6.0
2024-05-17 08:10 pm 3.6 3.3 9.1 SE 1.0 3.7 ESE SWELL 6.2
2024-05-17 07:40 pm 3.3 3.3 9.1SSE 1.0 4.0 ESE SWELL 6.2
2024-05-17 07:10 pm 3.6 3.3 8.3SSE 1.0 3.4 E AVERAGE 6.1
2024-05-17 06:40 pm 3.9 3.6 8.3 SE 1.0 4.0 ESE AVERAGE 6.2
2024-05-17 06:10 pm 3.9 3.9 8.3SSE 1.3 4.0 E AVERAGE 6.3

Plot of wave energy versus frequency (and period)